User: anonymous   Login
Location: Campillo
(40.8621°N, 4.2488°W)
Time: 01:39:14
(UTC+00:00)
Language:

Ariane Rocket - Orbit

View from above orbital plane
View from above orbital plane
View from above satellite
View from above satellite

Ground track
Ground track

The orbit data is extracted from the following two-line orbital elements,

1 23561U 95021B   21208.57217486  .00000040  00000-0  28283-4 0  9998
2 23561  98.6718 258.7585 0007952 126.9952  34.2718 14.38037192376790
Epoch (UTC): 27 July 2021 13:43:55
Eccentricity: 0.0007952
inclination: 98.6718°
perigee height: 759 km
apogee height: 770 km
right ascension of ascending node: 258.7585°
argument of perigee: 126.9952°
revolutions per day: 14.38037192
mean anomaly at epoch: 34.2718°
orbit number at epoch: 37679

The dashed part of the orbit path shows where the satellite is in the earth's shadow,  

DLR